Regional Weather Roundup
Issued by NWS

Home | Current Version | Previous Version | Graphics & Text | Print | Product List | Glossary Off
Versions: 1 2 3 4 5 6 7 8 9 10 11 12 13 14 15 16 17 18 19 20 21 22 23 24 25 26 27 28 29 30 31 32 33 34 35 36 37 38 39 40 41 42 43 44 45 46 47 48 49 50

000
ASUS43 KTOP 281759
RWRKS

WEATHER ROUNDUP FOR KANSAS
NATIONAL WEATHER SERVICE GOODLAND KS
100 PM CDT FRI APR 28 2017

NOTE:  "FAIR" INDICATES FEW OR NO CLOUDS BELOW 12,000 FEET WITH NO
SIGNIFICANT WEATHER AND/OR OBSTRUCTIONS TO VISIBILITY.

KSZ001>006-013>018-027>032-041>047-281900-
NORTHWEST KANSAS

CITY           SKY/WX    TMP DP  RH WIND       PRES   REMARKS
GOODLAND       PTSUNNY   51  40  65 N15G24    29.71S
6HR MIN TEMP:  40; 6HR MAX TEMP:  52;

HAYS           MOSUNNY   61  45  55 NW17      29.67R
HILL CITY      CLOUDY    58  45  62 NW9       29.70R
6HR MIN TEMP:  46; 6HR MAX TEMP:  58;

RUSSELL        MOSUNNY   62  46  55 NW13      29.64F
6HR MIN TEMP:  48; 6HR MAX TEMP:  62;

$$

KSZ061>065-074>080-084>089-281900-
SOUTHWEST KANSAS

CITY           SKY/WX    TMP DP  RH WIND       PRES   REMARKS
DODGE CITY     SUNNY     66  38  35 N12       29.68S
6HR MIN TEMP:  40; 6HR MAX TEMP:  66;

ELKHART          N/A     62  35  36 S2          N/A
GARDEN CITY    SUNNY     62  34  35 N6        29.67S
6HR MIN TEMP:  38; 6HR MAX TEMP:  63;

GREAT BEND     SUNNY     64  45  49 NW10G18   29.66F
LIBERAL        MOSUNNY   65  34  31 VRB5      29.66S
$$

KSZ066>073-081>083-090>101-281900-
SOUTHEAST KANSAS

CITY           SKY/WX    TMP DP  RH WIND       PRES   REMARKS
CHANUTE        CLOUDY    62  57  83 S7        29.66F
6HR MIN TEMP:  58; 6HR MAX TEMP:  62; 6HR PCP:  0.04;

COFFEYVILLE    CLOUDY    65  59  81 S5        29.66F
6HR MIN TEMP:  57; 6HR MAX TEMP:  65; 6HR PCP: TRACE;

HUTCHINSON     SUNNY     67  45  45 NW14G21   29.65R
6HR MIN TEMP:  52; 6HR MAX TEMP:  67;

MEDICINE LODGE   N/A     68  44  42 NW10G17   29.65F
PARSONS        CLOUDY    64  58  80 S5        29.67F
6HR MIN TEMP:  57; 6HR MAX TEMP:  64; 6HR PCP:  0.08;

WICHITA INTL   MOSUNNY   68  51  54 W8        29.65R
6HR MIN TEMP:  52; 6HR MAX TEMP:  68;

WICHITA JABRA  MOSUNNY   68  52  56 W7        29.65R
6HR MIN TEMP:  51; 6HR MAX TEMP:  68;

WINFIELD       CLOUDY    69  57  65 W6        29.66R
6HR MIN TEMP:  58; 6HR MAX TEMP:  69;

$$

KSZ007>012-019>026-033>040-048>060-102>105-281900-
NORTHEAST KANSAS

CITY           SKY/WX    TMP DP  RH WIND       PRES   REMARKS
CONCORDIA      CLOUDY    48  48 100 E10       29.69R
6HR MIN TEMP:  47; 6HR MAX TEMP:  51; 6HR PCP:  0.01;

EMPORIA        CLOUDY    62  57  83 S6        29.66R
6HR MIN TEMP:  52; 6HR MAX TEMP:  62;

LAWRENCE       CLOUDY    59  58  96 E5        29.67F
6HR MIN TEMP:  51; 6HR MAX TEMP:  59; 6HR PCP:  0.06;

MANHATTAN      CLOUDY    60  55  83 VRB3      29.66S
6HR MIN TEMP:  50; 6HR MAX TEMP:  60; 6HR PCP:  0.05;

OLATHE IND     CLOUDY    58  57  97 SE13      29.68S FOG
6HR MIN TEMP:  51; 6HR MAX TEMP:  60; 6HR PCP:  0.01;

OLATHE EXE     CLOUDY    57  57 100 S13       29.68S
6HR MIN TEMP:  50; 6HR MAX TEMP:  61; 6HR PCP:  0.02;

SALINA         SUNNY     68  49  50 NW9       29.66R
6HR MIN TEMP:  52; 6HR MAX TEMP:  68; 6HR PCP: TRACE;

TOPEKA BILLARD CLOUDY    61  57  87 S6        29.67S
6HR MIN TEMP:  51; 6HR MAX TEMP:  61; 6HR PCP: TRACE;

TOPEKA FORBES  CLOUDY    62  57  83 S8        29.67R
6HR MIN TEMP:  52; 6HR MAX TEMP:  62;

$$




USA.gov is the U.S. government's official web portal to all federal, state and local government web resources and services.